COSMOS 1275 DEB, 42170

Orbit data source: Space-Track

COSMOS 1275 DEB, 42170 is space debris in LEO originally from a launch on Thu, 04 Jun 1981 UTC launched from the Plesetsk Missile And Space Complex (PKMTR). Debris objects in space refer to the collection of defunct objects orbiting the Earth. Examples of debris include non-operational satellites, rocket bodies, and fragments generated from explosions, collisions, or faulty payload assembly.

Loading next visibility...
Identifier
42170, 1981-053SJ
Orbit
LEO
Country
Flag of CISCIS
Related business
Manufacturer
Unknown
Mission
Spacecraft
Bus & Motor
Unknown
Mass
Unknown
Launch date (UTC)
1981-06-04 (45 years ago)
Launch vehicle
Unknown
Launch site
Plesetsk Missile And Space Complex (PKMTR)
Object type
Payload
Rocket body
Debris
Shape & HBR
Unknown shape, 0.1 m
Radar Cross Section
Medium (>0.1 m² and <1 m²)

Expand to show TLE details & history
Last TLE update: 6 days ago

TLE from 6 days ago
0 COSMOS 1275 DEB
1 42170U 81053SJ  26167.58767318  .00001033  00000-0  14565-2 0  9998
2 42170  82.7644 276.4836 0192177 326.4507  32.4580 13.48963844585209
Epoch: 2026-06-16T14:06Z
TLE epoch observation values (Epoch: 2026-06-16T14:06:14.962Z)
Latitude
-0.00008°
Longitude
160.06369°
Altitude
958.849 km
Speed
7.431 km/s
True Right ascension
18h 25m 56s
True Declination
0° 00' 00"
Sunlit
Object was in full shadow at epoch
Visualization orbit readout
Latitude
Unknown
Longitude
Unknown
Altitude
Unknown
Speed
Unknown
Apparent Right ascension
Unknown
Apparent Declination
Unknown
Sunlit
N/A
Visualization observer readout
Local Sidereal Time
19:08:34
Azimuth
Unknown
Elevation
Unknown
Doppler factor
Unknown
Orbital elements
Apogee altitude
1,216.462 km
Perigee altitude
930.065 km
Semi-major axis
7,451.4 km
Eccentricity
0.01922
Inclination
82.7644°
RAAN
276.4836°
Arg. of periapsis
326.4507°
True anomaly
33.66421°
Mean anomaly
32.458°
Eccentric anomaly
33.05864°
Mean motion
3.37432 °/min
Orbital period
106.69 mins
BSTAR
0.0014565
Loading maneuver chart data...
Computing Atmospheric mass density...

Documentation

Showing up to 5 results
|